Home > Weather > Unnao > Past weeks

Flag for India Weather for the Past 2 Weeks in Unnao, Uttar Pradesh, India

Now
66 °F

Haze.


Feels Like: 66 °F
Forecast: 59 / 82 °F
Wind: No wind

Location: Lucknow / Amausi

Current Time: Feb 13, 2016 at 11:23:23 PM

Latest Report: Feb 13, 2016 at 10:00 PM


Visibility: 2 mi

Pressure: 29.92 "Hg

Humidity: 60%

Dew point: 52 °F

Location of UnnaoLocation

Historic Weather in Unnao — Graph

°F

Unnao Temperature Yesterday

Maximum temperature yesterday: 81 °F (at 1:00 PM)
Minimum temperature yesterday: 52 °F (at 6:00 AM)
Average temperature yesterday: 69 °F

High & Low Weather Summary for the Past Weeks

 TemperatureHumidityPressure
High84 °F (Feb 13, 1:30 PM)100% (Jan 30, 6:30 AM)30.09 "Hg (Jan 30, 6:30 AM)
Low45 °F (Feb 4, 6:00 AM)25% (Feb 13, 4:00 PM)29.80 "Hg (Feb 11, 3:30 PM)
Average66 °F62%29.95 "Hg
* Reported Jan 29 10:00 PM — Feb 13 10:00 PM, Unnao, Weather by CustomWeather, © 2016

Note: Actual official high and low records may vary slightly from our data, if they occured in-between our weather recording intervals... More about our weather records

Advertising

Unnao Weather History for the Previous 24 Hours

 ConditionsComfort  
Time TempWeatherWind HumidityBarometerVisibility
10:00 PM
Sat, Feb 13
66 °FHaze.No wind60%29.92 "Hg2 mi
9:00 PM68 °FHaze.No wind56%29.92 "Hg2 mi
8:30 PM68 °FHaze.No wind53%29.92 "Hg2 mi
8:00 PM70 °FHaze.No wind50%29.92 "Hg2 mi
7:30 PM70 °FHaze.No wind50%29.92 "Hg2 mi
7:00 PM72 °FHaze.No wind50%29.89 "Hg2 mi
6:30 PM73 °FHaze.No wind47%29.89 "Hg3 mi
6:00 PM77 °FHaze.No wind39%29.89 "Hg3 mi
5:30 PM81 °FHaze.3 mph34%29.89 "Hg3 mi
5:00 PM82 °FHaze.3 mph30%29.86 "Hg3 mi
4:30 PM82 °FHaze.5 mph30%29.86 "Hg3 mi
4:00 PM84 °FHaze.5 mph25%29.86 "Hg3 mi
3:00 PM84 °FHaze.3 mph29%29.89 "Hg3 mi
2:30 PM84 °FHaze.3 mph27%29.89 "Hg3 mi
1:30 PM84 °FHaze.3 mph29%29.89 "Hg3 mi
1:00 PM82 °FHaze.3 mph28%29.92 "Hg3 mi
12:00 PM81 °FHaze.2 mph32%29.95 "Hg2 mi
11:30 AM79 °FHaze.5 mph34%29.98 "Hg2 mi
11:00 AM77 °FHaze.5 mph34%29.98 "Hg2 mi
10:30 AM75 °FHaze.3 mph34%29.98 "Hg2 mi
9:30 AM70 °FHaze.3 mph43%29.98 "Hg1 mi
9:00 AM66 °FHaze.No wind49%29.95 "Hg1 mi
8:30 AM59 °FScattered clouds.No wind72%29.95 "Hg1 mi
8:00 AM55 °FFog.No wind88%29.95 "Hg1 mi
7:30 AM50 °FFog.No wind88%29.92 "Hg1 mi
7:00 AM52 °FFog.No wind82%29.92 "Hg1 mi
6:00 AM52 °FFog.No wind82%29.89 "Hg1 mi
5:00 AM54 °FFog.No wind77%29.86 "Hg1 mi
4:00 AM54 °FFog.No wind77%29.86 "Hg1 mi
3:00 AM55 °FHaze.No wind72%29.86 "Hg1 mi
2:00 AM55 °FHaze.No wind72%29.89 "Hg1 mi
1:00 AM57 °FHaze.No wind67%29.89 "Hg1 mi
12:00 AM61 °FHaze.No wind59%29.89 "Hg1 mi
11:00 PM
Fri, Feb 12
61 °FHaze.No wind59%29.89 "Hg1 mi
Weather by CustomWeather, © 2016

See weather overviewHow to use our weather pages